User: anonymous   Login
Location: *
(51.1248°S, 108.4023°W)
Time: 00:19:03
(UTC+00:00)
Language:

Lacrosse 4 Rocket - Orbit

View from above orbital plane
View from above orbital plane
View from above satellite
View from above satellite

Ground track
Ground track

The orbit data is extracted from the following two-line orbital elements,

1 26474U 00047B   21262.47956048  .00000176  00000-0  26051-4 0  9992
2 26474  67.9921 251.9510 0052137  49.2753 311.2899 14.96220075147900
Epoch (UTC): 19 September 2021 11:30:34
Eccentricity: 0.0052137
inclination: 67.9921°
perigee height: 542 km
apogee height: 615 km
right ascension of ascending node: 251.9510°
argument of perigee: 49.2753°
revolutions per day: 14.96220075
mean anomaly at epoch: 311.2899°
orbit number at epoch: 14790

The dashed part of the orbit path shows where the satellite is in the earth's shadow,  

DLR